| time (UTC) | temp F | wind direction | speed knots | gust knots | rain 1hr in | rain 24hr in | rain mn in | humidity % | barometer mb |
| 20260906131902 | 47 | 190 | 1.7 | 3.5 | 0.00 | 0.30 | 0.15 | 95 | 1012.6 |
| 20260906131401 | 47 | 192 | 1.7 | 3.5 | 0.00 | 0.30 | 0.15 | 95 | 1012.6 |
| 20260906130858 | 47 | 215 | 0.9 | 3.5 | 0.00 | 0.30 | 0.15 | 95 | 1012.6 |
| 20260906130358 | 47 | 232 | 0.0 | 0.0 | 0.00 | 0.30 | 0.15 | 95 | 1012.4 |
| 20260906125900 | 47 | 232 | 0.0 | 0.0 | 0.00 | 0.30 | 0.15 | 95 | 1012.4 |
| 20260906125358 | 47 | 232 | 0.0 | 0.0 | 0.00 | 0.30 | 0.15 | 95 | 1012.6 |
| 20260906124858 | 47 | 232 | 0.0 | 0.0 | 0.00 | 0.30 | 0.15 | 95 | 1012.4 |
| 20260906124358 | 47 | 232 | 0.0 | 0.0 | 0.00 | 0.30 | 0.15 | 95 | 1012.4 |
| 20260906123901 | 47 | 232 | 0.0 | 0.0 | 0.00 | 0.30 | 0.15 | 95 | 1012.4 |
| 20260906123359 | 47 | 232 | 0.0 | 1.7 | 0.01 | 0.30 | 0.15 | 95 | 1012.4 |
| 20260906122858 | 47 | 232 | 0.0 | 1.7 | 0.01 | 0.30 | 0.15 | 95 | 1012.3 |
| 20260906122351 | 47 | 233 | 0.0 | 1.7 | 0.01 | 0.30 | 0.15 | 95 | 1012.4 |
| 20260906121845 | 47 | 232 | 0.9 | 1.7 | 0.02 | 0.30 | 0.15 | 95 | 1012.6 |
| 20260906121339 | 47 | 232 | 0.9 | 1.7 | 0.02 | 0.30 | 0.15 | 95 | 1012.7 |
| 20260906120833 | 47 | 232 | 0.9 | 2.6 | 0.03 | 0.30 | 0.15 | 95 | 1012.7 |
| 20260906120327 | 47 | 233 | 0.9 | 2.6 | 0.03 | 0.30 | 0.15 | 95 | 1012.8 |
| 20260906115821 | 47 | 238 | 0.9 | 2.6 | 0.03 | 0.30 | 0.15 | 95 | 1012.8 |
| 20260906115550 | 48 | 238 | 0.9 | 2.6 | 0.03 | 0.30 | 0.15 | 95 | 1012.9 |
| 20260906114810 | 48 | 247 | 0.9 | 3.5 | 0.04 | 0.30 | 0.15 | 96 | 1012.9 |
| 20260906114302 | 48 | 249 | 0.9 | 3.5 | 0.05 | 0.30 | 0.15 | 95 | 1012.8 |
| 20260906114039 | 48 | 246 | 0.9 | 2.6 | 0.07 | 0.30 | 0.15 | 95 | 1013.0 |
| 20260906113251 | 48 | 244 | 0.9 | 2.6 | 0.07 | 0.29 | 0.14 | 96 | 1013.0 |
| 20260906112745 | 49 | 244 | 0.9 | 3.5 | 0.08 | 0.29 | 0.14 | 96 | 1013.1 |
| 20260906112239 | 49 | 244 | 0.9 | 3.5 | 0.08 | 0.28 | 0.13 | 96 | 1013.2 |
| 20260906111732 | 49 | 263 | 0.9 | 2.6 | 0.09 | 0.28 | 0.13 | 96 | 1013.2 |
| 20260906111504 | 49 | 315 | 0.9 | 2.6 | 0.09 | 0.28 | 0.13 | 96 | 1013.2 |
| 20260906110721 | 49 | 322 | 0.0 | 2.6 | 0.09 | 0.27 | 0.12 | 96 | 1013.1 |
| 20260906110215 | 49 | 156 | 0.0 | 0.9 | 0.09 | 0.27 | 0.12 | 96 | 1013.3 |
| 20260906105709 | 49 | 156 | 0.0 | 0.0 | 0.09 | 0.27 | 0.12 | 96 | 1013.3 |
| 20260906105203 | 49 | 156 | 0.0 | 1.7 | 0.09 | 0.27 | 0.12 | 96 | 1013.3 |
| 20260906104659 | 49 | 156 | 0.9 | 3.5 | 0.09 | 0.26 | 0.11 | 95 | 1013.3 |
| 20260906104151 | 49 | 159 | 0.9 | 3.5 | 0.07 | 0.24 | 0.09 | 95 | 1013.4 |
| 20260906103645 | 49 | 184 | 0.9 | 3.5 | 0.06 | 0.23 | 0.08 | 95 | 1013.6 |
| 20260906103142 | 49 | 150 | 0.0 | 1.7 | 0.05 | 0.22 | 0.07 | 96 | 1013.6 |
| 20260906102127 | 49 | 278 | 0.0 | 1.7 | 0.04 | 0.20 | 0.05 | 96 | 1013.5 |
| 20260906101621 | 49 | 279 | 0.0 | 1.7 | 0.03 | 0.19 | 0.04 | 96 | 1013.5 |
| 20260906101115 | 49 | 282 | 0.0 | 1.7 | 0.02 | 0.18 | 0.03 | 95 | 1013.4 |
| 20260906100844 | 49 | 282 | 0.0 | 1.7 | 0.02 | 0.18 | 0.03 | 95 | 1013.4 |
| 20260906100106 | 49 | 284 | 0.0 | 1.7 | 0.02 | 0.18 | 0.03 | 95 | 1013.3 |
| 20260906095830 | 49 | 284 | 0.9 | 3.5 | 0.02 | 0.18 | 0.03 | 95 | 1013.3 |
| 20260906095051 | 49 | 281 | 0.9 | 3.5 | 0.02 | 0.18 | 0.03 | 95 | 1013.3 |
| 20260906094821 | 49 | 28 | 0.0 | 2.6 | 0.01 | 0.17 | 0.02 | 95 | 1013.3 |
| 20260906094047 | 49 | 52 | 0.0 | 0.0 | 0.01 | 0.17 | 0.02 | 95 | 1013.4 |
| 20260906094039 | 49 | 49 | 0.0 | 0.9 | 0.01 | 0.17 | 0.02 | 95 | 1013.3 |
| 20260906093027 | 49 | 52 | 0.0 | 0.0 | 0.01 | 0.17 | 0.02 | 95 | 1013.2 |
| 20260906092521 | 49 | 52 | 0.0 | 0.0 | 0.01 | 0.16 | 0.01 | 95 | 1013.2 |
| 20260906092015 | 49 | 52 | 0.0 | 0.9 | 0.01 | 0.16 | 0.01 | 95 | 1013.1 |
| 20260906091509 | 49 | 52 | 0.0 | 0.9 | 0.01 | 0.16 | 0.01 | 95 | 1013.2 |
| 20260906091002 | 49 | 52 | 0.0 | 0.0 | 0.01 | 0.16 | 0.01 | 95 | 1013.2 |
| 20260906090458 | 49 | 52 | 0.0 | 0.0 | 0.01 | 0.16 | 0.01 | 95 | 1013.2 |
| 20260906085951 | 49 | 52 | 0.0 | 0.0 | 0.01 | 0.16 | 0.01 | 95 | 1013.2 |
| 20260906085445 | 49 | 52 | 0.0 | 0.0 | 0.01 | 0.16 | 0.01 | 95 | 1013.3 |
| 20260906084939 | 49 | 52 | 0.0 | 0.0 | 0.01 | 0.16 | 0.01 | 95 | 1013.3 |
| 20260906084433 | 49 | 52 | 0.0 | 0.9 | 0.01 | 0.17 | 0.01 | 95 | 1013.3 |
| 20260906084207 | 49 | 52 | 0.0 | 0.9 | 0.01 | 0.17 | 0.01 | 95 | 1013.4 |
| 20260906083428 | 49 | 52 | 0.0 | 0.0 | 0.01 | 0.17 | 0.01 | 95 | 1013.4 |
| 20260906083200 | 49 | 52 | 0.0 | 0.9 | 0.01 | 0.17 | 0.01 | 95 | 1013.5 |
| 20260906082423 | 49 | 52 | 0.0 | 0.9 | 0.00 | 0.16 | 0.00 | 95 | 1013.6 |
| 20260906081921 | 49 | 52 | 0.0 | 0.9 | 0.00 | 0.16 | 0.00 | 95 | 1013.8 |
| 20260906081423 | 49 | 52 | 0.0 | 0.0 | 0.00 | 0.16 | 0.00 | 95 | 1013.6 |
| 20260906080921 | 49 | 52 | 0.0 | 1.7 | 0.00 | 0.16 | 0.00 | 95 | 1013.6 |
| 20260906080419 | 49 | 52 | 0.0 | 1.7 | 0.00 | 0.16 | 0.00 | 95 | 1013.6 |
| 20260906075919 | 49 | 52 | 0.0 | 1.7 | 0.00 | 0.16 | 0.00 | 95 | 1013.5 |
| 20260906075419 | 49 | 52 | 0.0 | 1.7 | 0.00 | 0.16 | 0.00 | 95 | 1013.5 |
| 20260906074919 | 49 | 52 | 0.0 | 0.9 | 0.00 | 0.16 | 0.00 | 95 | 1013.5 |
| 20260906074419 | 49 | 52 | 0.0 | 2.6 | 0.00 | 0.16 | 0.00 | 95 | 1013.5 |
| 20260906073919 | 49 | 52 | 0.0 | 2.6 | 0.00 | 0.16 | 0.00 | 95 | 1013.5 |
| 20260906073419 | 49 | 42 | 0.0 | 0.9 | 0.00 | 0.16 | 0.00 | 94 | 1013.5 |
| 20260906073147 | 49 | 41 | 0.0 | 1.7 | 0.00 | 0.16 | 0.00 | 94 | 1013.2 |
| 20260906072419 | 49 | 41 | 0.0 | 2.6 | 0.00 | 0.16 | 0.00 | 94 | 1013.5 |
| 20260906071919 | 49 | 41 | 0.0 | 3.5 | 0.01 | 0.16 | 0.00 | 94 | 1013.3 |
| 20260906071419 | 49 | 38 | 0.0 | 3.5 | 0.01 | 0.16 | 0.00 | 94 | 1013.0 |
| 20260906070919 | 49 | 41 | 0.9 | 4.3 | 0.02 | 0.16 | 0.00 | 94 | 1013.2 |
| 20260906070645 | 49 | 355 | 1.7 | 4.3 | 0.03 | 0.16 | 0.00 | 94 | 1013.0 |
| 20260906065916 | 49 | 348 | 0.9 | 4.3 | 0.05 | 0.16 | 0.16 | 94 | 1013.0 |
| 20260906065417 | 49 | 350 | 0.0 | 2.6 | 0.05 | 0.16 | 0.16 | 94 | 1013.1 |
| 20260906064917 | 49 | 0 | 0.9 | 3.5 | 0.06 | 0.16 | 0.16 | 94 | 1013.3 |
| 20260906064414 | 49 | 355 | 1.7 | 7.8 | 0.07 | 0.16 | 0.16 | 94 | 1013.4 |
| 20260906063915 | 49 | 19 | 1.7 | 7.8 | 0.08 | 0.16 | 0.16 | 94 | 1013.5 |
| 20260906063414 | 49 | 339 | 0.9 | 4.3 | 0.09 | 0.16 | 0.16 | 94 | 1013.5 |
| 20260906062913 | 49 | 350 | 1.7 | 4.3 | 0.09 | 0.16 | 0.16 | 94 | 1013.6 |
| 20260906062648 | 49 | 5 | 2.6 | 7.8 | 0.11 | 0.16 | 0.16 | 94 | 1013.5 |
| 20260906061912 | 49 | 338 | 3.5 | 7.8 | 0.10 | 0.15 | 0.15 | 93 | 1013.4 |
| 20260906061411 | 49 | 342 | 2.6 | 7.0 | 0.11 | 0.15 | 0.15 | 93 | 1013.6 |
| 20260906060910 | 49 | 339 | 1.7 | 7.0 | 0.11 | 0.14 | 0.14 | 93 | 1013.9 |
| 20260906060648 | 49 | 336 | 0.9 | 3.5 | 0.11 | 0.13 | 0.13 | 93 | 1014.1 |
| 20260906060142 | 49 | 325 | 0.0 | 2.6 | 0.09 | 0.11 | 0.12 | 93 | 1014.2 |
| 20260906055408 | 49 | 327 | 0.9 | 6.1 | 0.09 | 0.11 | 0.11 | 92 | 1014.2 |
| 20260906054908 | 49 | 327 | 1.7 | 6.1 | 0.08 | 0.10 | 0.10 | 92 | 1014.3 |
| 20260906054409 | 49 | 349 | 1.7 | 6.1 | 0.07 | 0.09 | 0.09 | 92 | 1014.3 |
| 20260906053909 | 49 | 295 | 2.6 | 7.8 | 0.06 | 0.08 | 0.08 | 91 | 1014.3 |
| 20260906053639 | 49 | 304 | 3.5 | 10.4 | 0.05 | 0.07 | 0.07 | 91 | 1014.3 |
| 20260906052901 | 49 | 308 | 4.3 | 10.4 | 0.05 | 0.07 | 0.07 | 90 | 1014.3 |
| 20260906052354 | 50 | 257 | 3.5 | 8.7 | 0.03 | 0.05 | 0.06 | 90 | 1014.4 |
| 20260906051848 | 50 | 269 | 5.2 | 9.6 | 0.02 | 0.04 | 0.04 | 89 | 1014.4 |
| 20260906051343 | 50 | 236 | 6.1 | 11.3 | 0.02 | 0.04 | 0.04 | 87 | 1014.4 |
| 20260906050836 | 51 | 266 | 6.1 | 14.8 | 0.02 | 0.03 | 0.03 | 85 | 1014.5 |
| 20260906050602 | 52 | 291 | 5.2 | 14.8 | 0.01 | 0.02 | 0.02 | 84 | 1014.4 |
| 20260906045824 | 52 | 287 | 5.2 | 11.3 | 0.01 | 0.02 | 0.02 | 83 | 1014.4 |
| 20260906045318 | 53 | 244 | 5.2 | 12.2 | 0.01 | 0.02 | 0.02 | 82 | 1014.4 |
| 20260906044812 | 52 | 227 | 5.2 | 12.2 | 0.01 | 0.02 | 0.02 | 82 | 1014.3 |
| 20260906044536 | 52 | 240 | 4.3 | 9.6 | 0.01 | 0.02 | 0.02 | 83 | 1014.1 |
| 20260906043800 | 52 | 274 | 3.5 | 7.8 | 0.01 | 0.02 | 0.02 | 84 | 1014.0 |
| 20260906043254 | 52 | 283 | 3.5 | 7.8 | 0.01 | 0.02 | 0.02 | 84 | 1013.9 |
| 20260906042748 | 53 | 273 | 4.3 | 7.8 | 0.01 | 0.02 | 0.02 | 83 | 1013.8 |
| 20260906042241 | 53 | 286 | 4.3 | 7.8 | 0.01 | 0.02 | 0.02 | 82 | 1013.8 |
| 20260906041736 | 53 | 290 | 4.3 | 7.8 | 0.01 | 0.03 | 0.02 | 81 | 1013.6 |
| 20260906041230 | 53 | 298 | 4.3 | 8.7 | 0.01 | 0.03 | 0.02 | 79 | 1013.6 |
| 20260906040726 | 54 | 301 | 4.3 | 8.7 | 0.00 | 0.02 | 0.01 | 77 | 1013.5 |
| 20260906040218 | 55 | 284 | 5.2 | 9.6 | 0.00 | 0.03 | 0.01 | 74 | 1013.4 |
| 20260906035711 | 56 | 290 | 5.2 | 9.6 | 0.00 | 0.04 | 0.01 | 70 | 1013.4 |
| 20260906035206 | 56 | 287 | 5.2 | 10.4 | 0.00 | 0.04 | 0.01 | 68 | 1013.3 |
| 20260906034932 | 57 | 286 | 6.1 | 11.3 | 0.00 | 0.04 | 0.01 | 65 | 1013.3 |
| 20260906034154 | 57 | 296 | 5.2 | 11.3 | 0.00 | 0.04 | 0.01 | 64 | 1013.2 |
| 20260906033648 | 57 | 274 | 4.3 | 10.4 | 0.00 | 0.04 | 0.01 | 64 | 1013.1 |
| 20260906033142 | 57 | 281 | 4.3 | 10.4 | 0.00 | 0.04 | 0.01 | 63 | 1013.1 |
| 20260906032636 | 57 | 295 | 4.3 | 10.4 | 0.00 | 0.04 | 0.01 | 62 | 1012.9 |
| 20260906032133 | 58 | 298 | 4.3 | 8.7 | 0.00 | 0.04 | 0.01 | 62 | 1012.9 |
| 20260906031624 | 58 | 277 | 5.2 | 8.7 | 0.00 | 0.04 | 0.01 | 61 | 1012.9 |
| 20260906031347 | 58 | 324 | 5.2 | 9.6 | 0.00 | 0.04 | 0.01 | 60 | 1012.7 |
| 20260906030616 | 59 | 267 | 5.2 | 9.6 | 0.00 | 0.04 | 0.01 | 59 | 1012.7 |
| 20260906030117 | 59 | 263 | 5.2 | 11.3 | 0.00 | 0.04 | 0.01 | 59 | 1012.7 |
| 20260906025616 | 60 | 344 | 4.3 | 11.3 | 0.00 | 0.04 | 0.01 | 58 | 1012.6 |
| 20260906025115 | 60 | 260 | 3.5 | 9.6 | 0.00 | 0.04 | 0.01 | 56 | 1012.4 |
| 20260906024615 | 60 | 313 | 3.5 | 7.0 | 0.00 | 0.04 | 0.01 | 56 | 1012.3 |
| 20260906024116 | 60 | 309 | 3.5 | 7.0 | 0.00 | 0.04 | 0.01 | 56 | 1012.4 |
| 20260906023622 | 60 | 329 | 3.5 | 7.0 | 0.00 | 0.04 | 0.01 | 56 | 1012.4 |
| 20260906023347 | 60 | 313 | 3.5 | 7.8 | 0.00 | 0.04 | 0.01 | 56 | 1012.4 |
| 20260906022616 | 61 | 296 | 3.5 | 9.6 | 0.00 | 0.04 | 0.01 | 56 | 1012.3 |
| 20260906022116 | 61 | 313 | 3.5 | 9.6 | 0.00 | 0.04 | 0.01 | 55 | 1012.2 |
| 20260906021616 | 61 | 326 | 4.3 | 9.6 | 0.00 | 0.04 | 0.01 | 54 | 1012.2 |
| 20260906021115 | 61 | 307 | 4.3 | 9.6 | 0.00 | 0.04 | 0.01 | 53 | 1012.3 |
| 20260906020616 | 61 | 313 | 3.5 | 8.7 | 0.00 | 0.04 | 0.01 | 52 | 1012.3 |
| 20260906020116 | 62 | 323 | 3.5 | 8.7 | 0.00 | 0.04 | 0.01 | 52 | 1012.3 |
| 20260906015616 | 62 | 300 | 3.5 | 8.7 | 0.00 | 0.04 | 0.01 | 51 | 1012.3 |
| 20260906015116 | 62 | 339 | 3.5 | 8.7 | 0.00 | 0.04 | 0.01 | 50 | 1012.3 |
| 20260906014851 | 62 | 296 | 4.3 | 8.7 | 0.00 | 0.04 | 0.01 | 50 | 1012.2 |
| 20260906014116 | 62 | 288 | 4.3 | 8.7 | 0.00 | 0.04 | 0.01 | 49 | 1012.3 |
| 20260906013615 | 62 | 309 | 3.5 | 9.6 | 0.00 | 0.04 | 0.01 | 48 | 1012.4 |
| 20260906013115 | 63 | 338 | 4.3 | 9.6 | 0.00 | 0.04 | 0.01 | 48 | 1012.3 |
| 20260906012853 | 63 | 321 | 5.2 | 11.3 | 0.00 | 0.04 | 0.01 | 48 | 1012.3 |
| 20260906012115 | 63 | 334 | 4.3 | 11.3 | 0.00 | 0.04 | 0.01 | 48 | 1012.3 |
| 20260906011616 | 63 | 338 | 4.3 | 9.6 | 0.00 | 0.04 | 0.01 | 48 | 1012.2 |
| 20260906011355 | 64 | 330 | 4.3 | 9.6 | 0.00 | 0.04 | 0.01 | 49 | 1012.3 |
| 20260906010848 | 64 | 321 | 4.3 | 10.4 | 0.00 | 0.04 | 0.01 | 48 | 1012.2 |
| 20260906010115 | 64 | 330 | 4.3 | 11.3 | 0.00 | 0.04 | 0.01 | 48 | 1012.2 |
| 20260906005615 | 64 | 325 | 5.2 | 11.3 | 0.00 | 0.04 | 0.01 | 48 | 1012.2 |
| 20260906005116 | 64 | 355 | 5.2 | 11.3 | 0.00 | 0.04 | 0.01 | 48 | 1012.2 |
| 20260906004615 | 64 | 350 | 6.1 | 11.3 | 0.00 | 0.04 | 0.01 | 47 | 1012.1 |
| 20260906004358 | 64 | 333 | 5.2 | 10.4 | 0.00 | 0.04 | 0.01 | 48 | 1012.2 |
| 20260906003616 | 64 | 330 | 5.2 | 10.4 | 0.00 | 0.04 | 0.01 | 47 | 1012.1 |
| 20260906003116 | 64 | 344 | 5.2 | 10.4 | 0.00 | 0.04 | 0.01 | 48 | 1012.2 |
| 20260906002623 | 64 | 338 | 5.2 | 10.4 | 0.00 | 0.04 | 0.01 | 47 | 1012.2 |
| 20260906002123 | 65 | 331 | 5.2 | 12.2 | 0.00 | 0.04 | 0.01 | 47 | 1012.2 |
| 20260906001617 | 65 | 348 | 4.3 | 12.2 | 0.00 | 0.04 | 0.01 | 46 | 1012.1 |
| 20260906001110 | 65 | 322 | 4.3 | 8.7 | 0.00 | 0.04 | 0.01 | 47 | 1012.1 |
| 20260906000607 | 65 | 345 | 5.2 | 10.4 | 0.00 | 0.04 | 0.01 | 47 | 1012.2 |
| 20260906000100 | 65 | 283 | 6.1 | 12.2 | 0.00 | 0.04 | 0.01 | 47 | 1012.0 |
| 20260905235553 | 65 | 355 | 6.1 | 12.2 | 0.00 | 0.04 | 0.01 | 47 | 1012.1 |
| 20260905235046 | 65 | 301 | 5.2 | 11.3 | 0.00 | 0.04 | 0.01 | 47 | 1012.0 |
| 20260905234541 | 67 | 294 | 5.2 | 11.3 | 0.00 | 0.04 | 0.01 | 46 | 1012.0 |
| 20260905234036 | 67 | 342 | 5.2 | 10.4 | 0.00 | 0.04 | 0.01 | 44 | 1012.0 |
| 20260905233526 | 68 | 321 | 6.1 | 12.2 | 0.00 | 0.04 | 0.01 | 43 | 1012.0 |
| 20260905233022 | 68 | 296 | 6.1 | 14.8 | 0.00 | 0.04 | 0.01 | 42 | 1012.0 |
| 20260905232516 | 68 | 17 | 5.2 | 14.8 | 0.00 | 0.04 | 0.01 | 43 | 1012.0 |
| 20260905232011 | 68 | 298 | 3.5 | 9.6 | 0.00 | 0.04 | 0.01 | 42 | 1012.1 |
| 20260905231734 | 68 | 326 | 2.6 | 8.7 | 0.00 | 0.04 | 0.01 | 42 | 1012.1 |
| 20260905230953 | 68 | 5 | 1.7 | 4.3 | 0.00 | 0.04 | 0.01 | 42 | 1012.1 |
| 20260905230723 | 68 | 323 | 2.6 | 6.1 | 0.00 | 0.04 | 0.01 | 41 | 1012.1 |
| 20260905225947 | 68 | 336 | 1.7 | 7.8 | 0.00 | 0.04 | 0.01 | 41 | 1012.1 |
| 20260905225441 | 68 | 44 | 2.6 | 7.8 | 0.00 | 0.05 | 0.01 | 41 | 1012.2 |
| 20260905225203 | 69 | 5 | 2.6 | 7.8 | 0.00 | 0.05 | 0.01 | 41 | 1012.2 |
| 20260905224430 | 69 | 338 | 1.7 | 6.1 | 0.00 | 0.06 | 0.01 | 41 | 1012.1 |
| 20260905223923 | 69 | 321 | 1.7 | 6.1 | 0.00 | 0.06 | 0.01 | 41 | 1012.1 |
| 20260905223417 | 69 | 322 | 1.7 | 5.2 | 0.00 | 0.06 | 0.01 | 40 | 1012.2 |
| 20260905222911 | 69 | 84 | 0.9 | 5.2 | 0.00 | 0.06 | 0.01 | 42 | 1012.2 |
| 20260905222405 | 68 | 12 | 1.7 | 5.2 | 0.00 | 0.06 | 0.01 | 43 | 1012.3 |
| 20260905221859 | 67 | 76 | 1.7 | 7.0 | 0.00 | 0.06 | 0.01 | 44 | 1012.3 |
| 20260905221353 | 67 | 81 | 1.7 | 7.0 | 0.00 | 0.06 | 0.01 | 43 | 1012.3 |
| 20260905221112 | 67 | 69 | 0.9 | 4.3 | 0.00 | 0.06 | 0.01 | 43 | 1012.4 |
| 20260905220610 | 68 | 57 | 1.7 | 7.0 | 0.00 | 0.06 | 0.01 | 44 | 1012.2 |
| 20260905220107 | 68 | 346 | 2.6 | 7.0 | 0.00 | 0.06 | 0.01 | 43 | 1012.3 |
| 20260905215331 | 68 | 355 | 1.7 | 4.3 | 0.00 | 0.06 | 0.01 | 44 | 1012.4 |
| 20260905214821 | 67 | 346 | 0.9 | 3.5 | 0.00 | 0.06 | 0.01 | 44 | 1012.6 |
| 20260905214319 | 68 | 335 | 2.6 | 7.8 | 0.00 | 0.06 | 0.01 | 44 | 1012.6 |
| 20260905213811 | 69 | 355 | 2.6 | 7.8 | 0.00 | 0.06 | 0.01 | 42 | 1012.6 |
| 20260905213530 | 69 | 16 | 1.7 | 6.1 | 0.00 | 0.06 | 0.01 | 43 | 1012.7 |
| 20260905212803 | 68 | 34 | 1.7 | 5.2 | 0.00 | 0.06 | 0.01 | 45 | 1012.8 |
| 20260905212253 | 68 | 11 | 1.7 | 4.3 | 0.00 | 0.06 | 0.01 | 45 | 1012.7 |
| 20260905211747 | 68 | 11 | 1.7 | 4.3 | 0.00 | 0.06 | 0.01 | 44 | 1012.8 |
| 20260905211241 | 68 | 57 | 1.7 | 4.3 | 0.00 | 0.06 | 0.01 | 45 | 1012.9 |
| 20260905210735 | 68 | 63 | 0.9 | 3.5 | 0.00 | 0.06 | 0.01 | 46 | 1012.9 |
| 20260905210229 | 67 | 118 | 0.9 | 3.5 | 0.00 | 0.06 | 0.01 | 45 | 1013.0 |
| 20260905205723 | 67 | 90 | 0.9 | 6.1 | 0.00 | 0.06 | 0.01 | 46 | 1013.0 |
| 20260905205217 | 67 | 72 | 1.7 | 7.0 | 0.00 | 0.06 | 0.01 | 45 | 1013.0 |
| 20260905204711 | 67 | 17 | 2.6 | 7.0 | 0.00 | 0.06 | 0.01 | 47 | 1013.0 |
| 20260905204433 | 67 | 60 | 1.7 | 5.2 | 0.00 | 0.06 | 0.01 | 47 | 1013.0 |
| 20260905203700 | 67 | 348 | 0.9 | 4.3 | 0.00 | 0.06 | 0.01 | 46 | 1013.2 |
| 20260905203153 | 67 | 80 | 1.7 | 7.0 | 0.00 | 0.06 | 0.01 | 49 | 1013.1 |
| 20260905202646 | 66 | 96 | 0.9 | 7.0 | 0.00 | 0.06 | 0.01 | 49 | 1013.2 |
| 20260905202143 | 65 | 44 | 0.0 | 3.5 | 0.00 | 0.06 | 0.01 | 48 | 1013.2 |
| 20260905201642 | 65 | 0 | 0.9 | 5.2 | 0.00 | 0.06 | 0.01 | 50 | 1013.3 |
| 20260905201149 | 65 | 201 | 0.9 | 5.2 | 0.00 | 0.06 | 0.01 | 50 | 1013.3 |
| 20260905201143 | 65 | 199 | 0.9 | 5.2 | 0.00 | 0.06 | 0.01 | 49 | 1013.3 |
| 20260905200139 | 64 | 104 | 1.7 | 6.1 | 0.00 | 0.06 | 0.01 | 49 | 1013.4 |
| 20260905195651 | 64 | 171 | 1.7 | 7.0 | 0.00 | 0.06 | 0.01 | 50 | 1013.4 |
| 20260905195139 | 64 | 138 | 0.9 | 7.0 | 0.00 | 0.06 | 0.01 | 51 | 1013.5 |
| 20260905194639 | 64 | 131 | 0.9 | 4.3 | 0.00 | 0.06 | 0.01 | 52 | 1013.5 |
| 20260905194135 | 63 | 119 | 1.7 | 4.3 | 0.00 | 0.06 | 0.01 | 53 | 1013.6 |
| 20260905193635 | 63 | 172 | 0.9 | 4.3 | 0.00 | 0.06 | 0.01 | 54 | 1013.8 |
| 20260905193402 | 62 | 105 | 0.9 | 3.5 | 0.00 | 0.06 | 0.01 | 56 | 1013.6 |
| 20260905192636 | 62 | 99 | 0.9 | 5.2 | 0.00 | 0.06 | 0.01 | 56 | 1013.8 |
| 20260905192405 | 62 | 91 | 1.7 | 5.2 | 0.00 | 0.06 | 0.01 | 57 | 1013.9 |
| 20260905191635 | 62 | 80 | 1.7 | 5.2 | 0.00 | 0.06 | 0.01 | 55 | 1014.0 |
| 20260905191408 | 62 | 89 | 1.7 | 5.2 | 0.00 | 0.06 | 0.01 | 54 | 1014.0 |
| 20260905190635 | 62 | 96 | 0.9 | 2.6 | 0.00 | 0.06 | 0.01 | 59 | 1014.0 |
| 20260905190135 | 61 | 47 | 1.7 | 4.3 | 0.00 | 0.06 | 0.01 | 59 | 1013.9 |
| 20260905185907 | 62 | 51 | 1.7 | 6.1 | 0.00 | 0.06 | 0.01 | 59 | 1014.0 |
| 20260905185134 | 62 | 55 | 1.7 | 6.1 | 0.00 | 0.06 | 0.01 | 60 | 1014.1 |
| 20260905184628 | 61 | 114 | 1.7 | 5.2 | 0.00 | 0.06 | 0.01 | 63 | 1014.0 |
| 20260905184122 | 60 | 63 | 1.7 | 5.2 | 0.00 | 0.06 | 0.01 | 66 | 1014.0 |
| 20260905183616 | 60 | 89 | 1.7 | 6.1 | 0.00 | 0.06 | 0.01 | 65 | 1014.1 |
| 20260905183110 | 60 | 100 | 1.7 | 6.1 | 0.00 | 0.06 | 0.01 | 66 | 1014.2 |
| 20260905182604 | 59 | 78 | 0.9 | 6.1 | 0.00 | 0.06 | 0.01 | 69 | 1014.3 |
| 20260905182059 | 59 | 114 | 0.9 | 3.5 | 0.00 | 0.06 | 0.01 | 71 | 1014.4 |
| 20260905181552 | 58 | 127 | 1.7 | 5.2 | 0.00 | 0.06 | 0.01 | 71 | 1014.5 |
| 20260905181044 | 57 | 121 | 0.9 | 5.2 | 0.00 | 0.06 | 0.01 | 74 | 1014.6 |
| 20260905180819 | 55 | 96 | 0.9 | 3.5 | 0.00 | 0.06 | 0.01 | 78 | 1014.6 |
| 20260905180543 | 56 | 139 | 0.9 | 4.3 | 0.00 | 0.06 | 0.01 | 75 | 1014.7 |
| 20260905175020 | 54 | 90 | 0.9 | 3.5 | 0.00 | 0.06 | 0.01 | 81 | 1014.8 |
| 20260905174514 | 53 | 147 | 0.9 | 5.2 | 0.00 | 0.06 | 0.01 | 82 | 1014.8 |
| 20260905174009 | 53 | 148 | 0.9 | 5.2 | 0.00 | 0.06 | 0.01 | 82 | 1015.0 |
| 20260905173502 | 52 | 166 | 0.9 | 5.2 | 0.00 | 0.06 | 0.01 | 86 | 1015.0 |
| 20260905173006 | 51 | 123 | 0.0 | 2.6 | 0.00 | 0.06 | 0.01 | 88 | 1015.0 |
| 20260905173000 | 51 | 171 | 0.9 | 5.2 | 0.00 | 0.06 | 0.01 | 85 | 1015.1 |
| 20260905171944 | 50 | 116 | 0.9 | 3.5 | 0.00 | 0.06 | 0.01 | 90 | 1015.0 |
| 20260905171438 | 49 | 105 | 0.9 | 3.5 | 0.00 | 0.06 | 0.01 | 91 | 1015.0 |
| 20260905170932 | 48 | 135 | 0.9 | 3.5 | 0.00 | 0.06 | 0.01 | 91 | 1015.0 |
| 20260905170427 | 47 | 134 | 0.9 | 3.5 | 0.00 | 0.06 | 0.01 | 91 | 1015.0 |
| 20260905165920 | 47 | 136 | 0.0 | 3.5 | 0.00 | 0.06 | 0.01 | 91 | 1014.8 |
| 20260905165417 | 47 | 136 | 0.9 | 3.5 | 0.00 | 0.06 | 0.01 | 93 | 1015.0 |
| 20260905165142 | 47 | 134 | 1.7 | 5.2 | 0.00 | 0.06 | 0.01 | 93 | 1015.0 |
| 20260905164930 | 46 | 142 | 1.7 | 5.2 | 0.00 | 0.06 | 0.01 | 93 | 1014.8 |
| 20260905164920 | 47 | 134 | 1.7 | 5.2 | 0.00 | 0.06 | 0.01 | 93 | 1015.0 |
| 20260905163856 | 46 | 138 | 1.7 | 4.3 | 0.00 | 0.06 | 0.01 | 93 | 1014.8 |
| 20260905163350 | 46 | 149 | 1.7 | 5.2 | 0.00 | 0.06 | 0.01 | 93 | 1014.8 |
| 20260905162844 | 46 | 133 | 0.9 | 5.2 | 0.00 | 0.06 | 0.01 | 93 | 1015.0 |
| 20260905162837 | 46 | 148 | 0.9 | 6.1 | 0.00 | 0.06 | 0.01 | 93 | 1015.1 |
| 20260905161815 | 46 | 139 | 0.9 | 4.3 | 0.00 | 0.06 | 0.01 | 95 | 1015.0 |
| 20260905160541 | 44 | 148 | 0.0 | 2.6 | 0.00 | 0.06 | 0.01 | 95 | 1015.1 |
| 20260905155808 | 44 | 150 | 0.0 | 2.6 | 0.00 | 0.06 | 0.01 | 94 | 1015.2 |
| 20260905155305 | 44 | 153 | 0.0 | 1.7 | 0.00 | 0.06 | 0.01 | 95 | 1015.2 |
| 20260905154756 | 44 | 153 | 0.0 | 2.6 | 0.00 | 0.06 | 0.01 | 95 | 1015.2 |
| 20260905154250 | 44 | 153 | 0.9 | 2.6 | 0.00 | 0.06 | 0.01 | 95 | 1015.1 |
| 20260905153744 | 44 | 153 | 0.9 | 5.2 | 0.00 | 0.06 | 0.01 | 94 | 1015.0 |
| 20260905153244 | 44 | 157 | 0.9 | 5.2 | 0.00 | 0.06 | 0.01 | 95 | 1015.0 |
| 20260905152742 | 44 | 140 | 1.7 | 7.8 | 0.00 | 0.06 | 0.01 | 95 | 1014.8 |
| 20260905152242 | 44 | 148 | 1.7 | 7.8 | 0.00 | 0.06 | 0.01 | 95 | 1015.0 |
| 20260905152009 | 45 | 143 | 1.7 | 6.1 | 0.00 | 0.06 | 0.01 | 95 | 1015.1 |
| 20260905151512 | 45 | 142 | 1.7 | 6.1 | 0.00 | 0.06 | 0.01 | 96 | 1015.1 |
| 20260905151006 | 45 | 157 | 1.7 | 5.2 | 0.00 | 0.06 | 0.01 | 96 | 1015.1 |
| 20260905150241 | 44 | 149 | 1.7 | 4.3 | 0.00 | 0.06 | 0.01 | 96 | 1015.1 |
| 20260905145742 | 44 | 150 | 1.7 | 4.3 | 0.00 | 0.06 | 0.01 | 96 | 1015.1 |
| 20260905145507 | 43 | 157 | 1.7 | 4.3 | 0.00 | 0.06 | 0.01 | 96 | 1015.0 |
| 20260905144742 | 43 | 155 | 1.7 | 4.3 | 0.00 | 0.06 | 0.01 | 96 | 1015.0 |
| 20260905144242 | 42 | 140 | 1.7 | 5.2 | 0.00 | 0.06 | 0.01 | 96 | 1014.8 |
| 20260905143742 | 42 | 151 | 1.7 | 5.2 | 0.00 | 0.06 | 0.01 | 96 | 1014.8 |
| 20260905143242 | 42 | 149 | 0.9 | 6.1 | 0.00 | 0.06 | 0.01 | 96 | 1014.8 |
| 20260905142742 | 42 | 154 | 0.9 | 6.1 | 0.00 | 0.06 | 0.01 | 96 | 1014.7 |
| 20260905142243 | 42 | 143 | 2.6 | 6.1 | 0.00 | 0.06 | 0.01 | 96 | 1014.7 |
| 20260905141745 | 42 | 144 | 2.6 | 6.1 | 0.00 | 0.06 | 0.01 | 96 | 1014.5 |
| 20260905141238 | 41 | 141 | 1.7 | 4.3 | 0.00 | 0.06 | 0.01 | 96 | 1014.5 |
| 20260905140738 | 41 | 152 | 1.7 | 4.3 | 0.00 | 0.06 | 0.01 | 96 | 1014.5 |
| 20260905140506 | 41 | 136 | 1.7 | 4.3 | 0.00 | 0.06 | 0.01 | 96 | 1014.4 |
| 20260905135737 | 41 | 146 | 1.7 | 4.3 | 0.00 | 0.06 | 0.01 | 96 | 1014.5 |
| 20260905135238 | 41 | 148 | 0.9 | 3.5 | 0.00 | 0.06 | 0.01 | 96 | 1014.4 |
| 20260905135001 | 41 | 146 | 1.7 | 4.3 | 0.00 | 0.06 | 0.01 | 96 | 1014.4 |
| 20260905134238 | 41 | 145 | 1.7 | 4.3 | 0.00 | 0.06 | 0.01 | 96 | 1014.4 |
| 20260905133738 | 41 | 159 | 2.6 | 6.1 | 0.00 | 0.06 | 0.01 | 96 | 1014.4 |
| 20260905133237 | 41 | 146 | 2.6 | 6.1 | 0.00 | 0.06 | 0.01 | 96 | 1014.3 |